|
Cosmos 2082 - Orbit
|
NJAA Observatory;
14:20:57
| Home | Info | Passes |
|
View from above orbital plane
|
View from above satellite
|
Ground track
|
The orbit data is extracted from the following two-line orbital elements,
1 20624U 90046A 13140.37719517 -.00000067 00000-0 -10346-4 0 6510
2 20624 071.0401 090.2675 0013680 144.3302 000.9897 14.13992173186720
| Epoch (UTC): | 20 May 2013 09:03:09 |
| Eccentricity: | 0.0013680 |
| inclination: | 71.0401° |
| perigee height: | 836 km |
| apogee height: | 855 km |
| right ascension of ascending node: | 90.2675° |
| argument of perigee: | 144.3302° |
| revolutions per day: | 14.13992173 |
| mean anomaly at epoch: | 0.9897° |
| orbit number at epoch: | 18672 |
The dashed part of the orbit path shows where the satellite is in the earth's shadow,
|
|